Regional Weather Roundup
Issued by NWS

Home | Current Version | Previous Version | Text Only | Print | Product List | Glossary Off
Versions: 1 2 3 4 5 6 7 8 9 10 11 12 13 14 15 16 17 18 19 20 21 22 23 24 25 26 27 28 29 30 31 32 33 34 35 36 37 38 39 40 41 42 43 44 45 46 47 48 49 50

000
ASUS43 KMPX 300810
RWRMN
WEATHER ROUNDUP FOR MINNESOTA
NATIONAL WEATHER SERVICE TWIN CITIES/CHANHASSEN MN
300 AM CDT MON MAR 30 2015


NOTE: "FAIR" INDICATES FEW OR NO CLOUDS BELOW 12,000 FEET WITH NO
SIGNIFICANT WEATHER AND/OR OBSTRUCTIONS TO VISIBILITY. N/A MEANS
CURRENT SKY AND/OR WEATHER CONDITIONS ARE NOT AVAILABLE.

MNZ060>063-068>070-300900-
   Twin Cities Metro

CITY           SKY/WX    TMP DP  RH WIND       PRES   REMARKS
TWIN CITIES    CLOUDY    41  29  62 SW7       29.96S
ST PAUL        CLOUDY    41  28  60 W5        29.97S
CRYSTAL        CLOUDY    42  28  57 SW8       29.94S
BLAINE         CLOUDY    43  28  56 CALM      29.95S
LAKEVILLE      CLOUDY    37  28  70 SW8       29.97R
EDEN PRAIRIE   CLOUDY    38  29  70 SW8       29.96S
SOUTH ST PAUL  CLOUDY    42  28  58 W9        29.96R
LAKE ELMO      CLOUDY    37  30  75 CALM      29.96S
$$
MNZ001>005-007-008-013>017-022>024-027-028-300900-
   Northwest Minnesota

CITY           SKY/WX    TMP DP  RH WIND       PRES   REMARKS
BEMIDJI        CLEAR     31  26  80 SW5       29.87F WCI  26
HALLOCK        PTCLDY    32  30  93 CALM      29.86F
ROSEAU         CLEAR     36  28  75 W6        29.85S
WARROAD        CLEAR     30  27  86 W6        29.85F WCI  24
THIEF RVR FALL CLEAR     34  27  75 CALM      29.88S
CROOKSTON      CLEAR     32  27  80 CALM      29.90S
FOSSTON        CLEAR     27  25  93 CALM      29.90R
DETROIT LAKES  CLEAR     32  30  93 S3        29.91S
MOORHEAD       CLEAR     36  30  80 SW6       29.93S
PARK RAPIDS    CLEAR     31  26  82 W6        29.89F WCI  25
MAHNOMEN       FAIR      30  27  88 S5        29.89F WCI  25
$$
MNZ006-009>011-018-025>026-300900-
   North Central Minnesota

CITY           SKY/WX    TMP DP  RH WIND       PRES   REMARKS
BAUDETTE       CLEAR     33  24  69 W5        29.84S WCI  29
FLAG ISLAND    CLEAR     34  25  69 W3        29.83S
INTL FALLS     CLEAR     31  23  72 W5        29.82S WCI  26
WASKISH        CLEAR     30  28  93 CALM      29.86S
BIG FORK       CLEAR     34  27  75 CALM      29.86R
LONGVILLE      CLEAR     27  25  93 CALM      29.89S
GRAND RAPIDS   CLEAR     36  25  64 W7        29.86S
CRANE LAKE     CLEAR     34  25  69 SE1       29.83R
ORR            CLEAR     34  23  64 CALM      29.81R
COOK           CLEAR     28  25  86 SW3       29.83S
WALKER         FAIR      34  26  72 W5        29.88S WCI  30
$$
MNZ012-019>021-037-300900-
   Northeast Minnesota

CITY           SKY/WX    TMP DP  RH WIND       PRES   REMARKS
DULUTH         CLEAR     37  25  61 W12       29.83S
ELY            CLEAR     36  25  64 W8        29.80R
HIBBING        CLEAR     35  24  64 W7        29.84R WCI  29
EVELETH        CLEAR     34  27  75 W8        29.85R WCI  27
DULUTH HARBOR  CLEAR     37  27  65 CALM      29.86S
TWO HARBORS    CLEAR     39  28  65 W8        29.80R
SILVER BAY     CLEAR     37  27  65 W3        29.78R
GRAND MARAIS     N/A     38  26  62 NW10G21   29.73R
G MARAIS ARPRT CLEAR     32  21  64 NW9G18    29.72R WCI  24
$$
MNZ029>031-032-039>041-046>048-054>057-064-300900-
   West Central Minnesota

CITY           SKY/WX    TMP DP  RH WIND       PRES   REMARKS
FERGUS FALLS   CLEAR     34  27  75 CALM      29.95F
WHEATON        CLEAR     36  27  69 SW3       29.96F
MORRIS         CLEAR     36  27  69 W3        29.94F
ALEXANDRIA     CLEAR     32  26  78 SW6       29.94F WCI  26
ELBOW LAKE     FAIR      33  28  80 CALM      29.93F
WADENA         CLEAR     34  27  75 SW3       29.90F
GLENWOOD       CLEAR     34  27  75 SW7       29.95S WCI  28
APPLETON       CLEAR     32  27  80 W5        29.96S WCI  27
BENSON         CLEAR     30  25  80 CALM      29.96F
ORTONVILLE     CLEAR     37  25  60 SW6       29.95F
MADISON        CLEAR     36  25  64 SW5       29.96F
WILLMAR        FAIR      36  27  69 CALM      29.97F
$$
MNZ033>034-036-042>043-049>051-058-059-300900-
   Central Minnesota

CITY           SKY/WX    TMP DP  RH WIND       PRES   REMARKS
ST CLOUD       PTCLDY    37  27  67 SW6       29.93F
SAUK CENTRE    FAIR      33  28  80 CALM      29.94F
PAYNESVILLE    CLEAR     30  26  83 SW5       29.95F WCI  26
AITKIN         CLEAR     36  25  64 W3        29.88S
PINE RIVER     CLEAR     34  27  75 CALM      29.93S
BRAINERD       CLEAR     30  23  75 SW3       29.91S
STAPLES        CLEAR     32  27  80 CALM      29.91F
LONG PRAIRIE   FAIR      34  28  80 SW6       29.93F WCI  29
LITTLE FALLS   CLEAR     32  27  80 CALM      29.92F
LITCHFIELD     PTCLDY    37  28  70 CALM      29.96F
BUFFALO        MOCLDY    36  28  75 CALM      29.97S
MAPLE LAKE     PTCLDY    39  31  72 SW7       29.95F
$$
MNZ037-044-045-052-053-300900-
   East Central Minnesota

CITY           SKY/WX    TMP DP  RH WIND       PRES   REMARKS
PRINCETON      CLOUDY    37  27  65 CALM      29.93F
MORA           PTCLDY    34  23  64 W3        29.93S
CAMBRIDGE      MOCLDY    39  27  60 CALM      29.92S
RUSH CITY      MOCLDY    36  26  66 SW3       29.93S
MOOSE LAKE     CLEAR     34  25  69 CALM      29.87R
HINCKLEY       FAIR      34  27  75 W7        29.91S WCI  28
CLOQUET        CLEAR     36  25  64 W7        29.86R
MCGREGOR       CLEAR     36  27  69 W7        29.89S
$$
MNZ071>073-080-081-089-090-097-098-300900-
   Southwest Minnesota

CITY           SKY/WX    TMP DP  RH WIND       PRES   REMARKS
MONTEVIDEO     CLEAR     39  27  60 W8        29.98F
GRANITE FALLS  CLEAR     37  25  63 SW12      29.99F
CANBY          PTCLDY    41  24  50 SW14      29.98F
MARSHALL       CLEAR     37  21  52 SW7       29.99F
REDWOOD FALLS  CLEAR     41  25  53 SW15      29.98S
OLIVIA         CLEAR     32  28  86 SW8       29.97F WCI  25
PIPESTONE      MOCLDY    32  21  64 SW5       30.02S WCI  27
WINDOM         CLEAR     36  25  64 SW6       30.02S
WORTHINGTON    PTCLDY    37  19  48 SW13      30.03F
JACKSON        CLEAR     34  25  69 SW3       30.03S
TRACY          CLEAR     39  25  56 SW10      30.01S
SLAYTON        PTCLDY    37  21  52 CALM      30.01F
$$
MNZ065>067-074>077-082>085-091>093-300900-
   South Central Minnesota

CITY           SKY/WX    TMP DP  RH WIND       PRES   REMARKS
MANKATO        MOCLDY    37  25  60 W10       29.99S
NEW ULM        MOCLDY    34  25  69 W6        29.99S WCI  29
ST JAMES       CLEAR     37  27  65 SW12      30.02S
FAIRMONT       CLEAR     39  23  52 W12       30.01S
GLENCOE        MOCLDY    38  31  75 SW6       29.97S
FARIBAULT      PTCLDY    36  28  75 SW3       29.99S
OWATONNA       CLEAR     36  27  69 CALM      29.99S
WASECA         MOCLDY    34  28  80 SW7       30.00F WCI  28
ALBERT LEA     CLEAR     36  27  69 CALM      30.00S
$$
MNZ078>079-086>088-094>096-300900-
   Southeast Minnesota

CITY           SKY/WX    TMP DP  RH WIND       PRES   REMARKS
ROCHESTER      PTCLDY    36  28  73 W12       29.98F
RED WING       CLOUDY    34  28  80 CALM      29.96S
STANTON        CLOUDY    38  29  72 S5        29.96S
DODGE CENTER   CLEAR     34  28  80 W8        29.98S WCI  27
WINONA         MOCLDY    39  30  70 CALM      29.97F
AUSTIN         CLEAR     36  27  69 SW5       29.99S
PRESTON        PTCLDY    35  28  78 W9        29.99S WCI  27
$$
ABBREVIATIONS USED IN REMARKS
   TC - TEMPERATURES IN CELSIUS
  WCI - WIND CHILL INDEX
   HX - HEAT INDEX
  VSB - VISIBILITY
$$



USA.gov is the U.S. government's official web portal to all federal, state and local government web resources and services.